Time,TemperatureF,DewpointF,PressureIn,WindDirection,WindDirectionDegrees,WindSpeedMPH,WindSpeedGustMPH,Humidity,HourlyPrecipIn,Conditions,Clouds,dailyrainin,SoftwareType,DateUTC
2013-03-19 00:00:00,16.3,-0.9,29.81,West,270,12.3,12.3,46,0.00,,,0.00,WUHU21623XXSP,2013-03-19 05:00:00,
2013-03-19 00:05:00,16.3,-0.9,29.82,NW,315,6.9,12.3,46,0.00,,,0.00,WUHU21623XXSP,2013-03-19 05:05:00,
2013-03-19 00:10:00,16.5,-0.8,29.82,WSW,247,5.1,8.1,46,0.00,,,0.00,WUHU21623XXSP,2013-03-19 05:10:00,
2013-03-19 00:15:00,16.5,-0.3,29.82,WNW,292,0.9,5.8,47,0.00,,,0.00,WUHU21623XXSP,2013-03-19 05:15:00,
2013-03-19 00:20:00,16.3,-0.5,29.82,WSW,247,3.6,11.0,47,0.00,,,0.00,WUHU21623XXSP,2013-03-19 05:20:00,
2013-03-19 00:25:00,16.2,-0.6,29.82,West,270,9.2,11.0,47,0.00,,,0.00,WUHU21623XXSP,2013-03-19 05:25:00,
2013-03-19 00:30:00,16.2,-0.6,29.82,WSW,247,13.4,13.4,47,0.00,,,0.00,WUHU21623XXSP,2013-03-19 05:30:00,
2013-03-19 00:35:00,16.2,-0.6,29.82,WSW,247,5.6,13.4,47,0.00,,,0.00,WUHU21623XXSP,2013-03-19 05:35:00,
2013-03-19 00:40:00,16.0,-0.8,29.81,WSW,247,3.1,8.9,47,0.00,,,0.00,WUHU21623XXSP,2013-03-19 05:40:00,
2013-03-19 00:45:00,16.2,-0.6,29.81,NW,315,0.0,8.9,47,0.00,,,0.00,WUHU21623XXSP,2013-03-19 05:45:00,
2013-03-19 00:50:00,16.0,-0.8,29.82,West,270,5.4,7.2,47,0.00,,,0.00,WUHU21623XXSP,2013-03-19 05:50:00,
2013-03-19 00:55:00,16.0,-0.8,29.81,West,270,6.9,7.2,47,0.00,,,0.00,WUHU21623XXSP,2013-03-19 05:55:00,
2013-03-19 01:00:00,16.0,-0.8,29.81,WNW,292,5.4,6.9,47,0.00,,,0.00,WUHU21623XXSP,2013-03-19 06:00:00,
2013-03-19 01:05:00,16.0,-0.8,29.81,WNW,292,5.4,5.4,47,0.00,,,0.00,WUHU21623XXSP,2013-03-19 06:05:00,
2013-03-19 01:10:00,16.0,-0.3,29.81,WNW,292,5.8,5.8,48,0.00,,,0.00,WUHU21623XXSP,2013-03-19 06:10:00,
2013-03-19 01:15:00,16.0,-0.3,29.81,WNW,292,12.1,12.1,48,0.00,,,0.00,WUHU21623XXSP,2013-03-19 06:15:00,
2013-03-19 01:20:00,15.8,-0.5,29.81,NW,315,2.0,12.1,48,0.00,,,0.00,WUHU21623XXSP,2013-03-19 06:20:00,
2013-03-19 01:25:00,15.8,-0.5,29.81,NNW,337,10.3,10.3,48,0.00,,,0.00,WUHU21623XXSP,2013-03-19 06:25:00,
2013-03-19 01:30:00,15.8,-0.5,29.81,WNW,292,4.5,10.3,48,0.00,,,0.00,WUHU21623XXSP,2013-03-19 06:30:00,
2013-03-19 01:36:00,15.6,-0.7,29.82,West,270,2.5,4.9,48,0.00,,,0.00,WUHU21623XXSP,2013-03-19 06:36:00,
2013-03-19 01:41:00,15.6,-0.7,29.81,SW,225,1.1,5.1,48,0.00,,,0.00,WUHU21623XXSP,2013-03-19 06:41:00,
2013-03-19 01:46:00,15.4,-0.8,29.82,SW,225,12.8,12.8,48,0.00,,,0.00,WUHU21623XXSP,2013-03-19 06:46:00,
2013-03-19 01:52:00,15.4,-0.8,29.81,NW,315,3.8,12.8,48,0.00,,,0.00,WUHU21623XXSP,2013-03-19 06:52:00,
2013-03-19 01:57:00,15.4,-0.8,29.81,WNW,292,1.6,3.8,48,0.00,,,0.00,WUHU21623XXSP,2013-03-19 06:57:00,
2013-03-19 02:02:00,15.4,-1.3,29.81,NW,315,3.6,3.6,47,0.00,,,0.00,WUHU21623XXSP,2013-03-19 07:02:00,
2013-03-19 02:07:00,15.3,-1.5,29.81,WNW,292,3.1,3.6,47,0.00,,,0.00,WUHU21623XXSP,2013-03-19 07:07:00,
2013-03-19 02:12:00,15.3,-1.5,29.81,WSW,247,7.2,7.2,47,0.00,,,0.00,WUHU21623XXSP,2013-03-19 07:12:00,
2013-03-19 02:17:00,15.1,-1.7,29.82,SSW,202,3.1,7.2,47,0.00,,,0.00,WUHU21623XXSP,2013-03-19 07:17:00,
2013-03-19 02:22:00,14.9,-1.8,29.82,NW,315,4.3,6.3,47,0.00,,,0.00,WUHU21623XXSP,2013-03-19 07:22:00,
2013-03-19 02:27:00,14.9,-1.8,29.82,West,270,5.1,5.4,47,0.00,,,0.00,WUHU21623XXSP,2013-03-19 07:27:00,
2013-03-19 02:32:00,14.9,-1.8,29.82,West,270,8.3,8.3,47,0.00,,,0.00,WUHU21623XXSP,2013-03-19 07:32:00,
2013-03-19 02:37:00,14.7,-1.5,29.82,WNW,292,0.9,11.0,48,0.00,,,0.00,WUHU21623XXSP,2013-03-19 07:37:00,
2013-03-19 02:42:00,14.7,-1.5,29.83,West,270,2.9,11.4,48,0.00,,,0.00,WUHU21623XXSP,2013-03-19 07:42:00,
2013-03-19 02:47:00,14.5,-1.7,29.83,West,270,5.1,11.4,48,0.00,,,0.00,WUHU21623XXSP,2013-03-19 07:47:00,
2013-03-19 02:52:00,14.5,-1.7,29.83,West,270,4.5,5.1,48,0.00,,,0.00,WUHU21623XXSP,2013-03-19 07:52:00,
2013-03-19 02:57:00,14.5,-1.7,29.83,WSW,247,3.4,4.7,48,0.00,,,0.00,WUHU21623XXSP,2013-03-19 07:57:00,
2013-03-19 03:02:00,14.4,-1.9,29.83,WSW,247,4.7,4.7,48,0.00,,,0.00,WUHU21623XXSP,2013-03-19 08:02:00,
2013-03-19 03:07:00,14.4,-1.7,29.83,NW,315,4.0,7.8,48,0.00,,,0.00,WUHU21623XXSP,2013-03-19 08:07:00,
2013-03-19 03:12:00,14.4,-1.9,29.83,West,270,4.5,7.8,48,0.00,,,0.00,WUHU21623XXSP,2013-03-19 08:12:00,
2013-03-19 03:17:00,14.4,-1.9,29.83,West,270,5.6,7.6,48,0.00,,,0.00,WUHU21623XXSP,2013-03-19 08:17:00,
2013-03-19 03:22:00,14.4,-1.9,29.83,WSW,247,3.4,7.6,48,0.00,,,0.00,WUHU21623XXSP,2013-03-19 08:22:00,
2013-03-19 03:27:00,14.4,-1.9,29.83,West,270,2.7,5.8,48,0.00,,,0.00,WUHU21623XXSP,2013-03-19 08:27:00,
2013-03-19 03:32:00,14.4,-1.9,29.83,WNW,292,2.0,5.6,48,0.00,,,0.00,WUHU21623XXSP,2013-03-19 08:32:00,
2013-03-19 03:37:00,14.4,-1.9,29.83,West,270,10.1,10.1,48,0.00,,,0.00,WUHU21623XXSP,2013-03-19 08:37:00,
2013-03-19 03:42:00,14.4,-1.9,29.83,West,270,3.1,10.1,48,0.00,,,0.00,WUHU21623XXSP,2013-03-19 08:42:00,
2013-03-19 03:47:00,14.2,-2.1,29.84,SSW,202,0.0,7.2,48,0.00,,,0.00,WUHU21623XXSP,2013-03-19 08:47:00,
2013-03-19 03:52:00,14.2,-2.1,29.84,WSW,247,2.7,5.8,48,0.00,,,0.00,WUHU21623XXSP,2013-03-19 08:52:00,
2013-03-19 03:57:00,14.2,-1.6,29.84,WSW,247,2.0,2.7,49,0.00,,,0.00,WUHU21623XXSP,2013-03-19 08:57:00,
2013-03-19 04:02:00,14.2,-1.6,29.84,West,270,1.3,12.3,49,0.00,,,0.00,WUHU21623XXSP,2013-03-19 09:02:00,
2013-03-19 04:07:00,14.2,-1.6,29.84,SW,225,6.0,12.3,49,0.00,,,0.00,WUHU21623XXSP,2013-03-19 09:07:00,
2013-03-19 04:12:00,14.2,-1.6,29.84,WNW,292,8.9,8.9,49,0.00,,,0.00,WUHU21623XXSP,2013-03-19 09:12:00,
2013-03-19 04:17:00,13.5,-2.7,29.84,West,270,3.4,8.9,48,0.00,,,0.00,WUHU21623XXSP,2013-03-19 09:17:00,
2013-03-19 04:22:00,13.8,-2.4,29.85,NNW,337,4.5,8.3,48,0.00,,,0.00,WUHU21623XXSP,2013-03-19 09:22:00,
2013-03-19 04:27:00,13.8,-2.4,29.84,SW,225,5.4,11.4,48,0.00,,,0.00,WUHU21623XXSP,2013-03-19 09:27:00,
2013-03-19 04:32:00,13.6,-2.6,29.85,West,270,9.2,11.4,48,0.00,,,0.00,WUHU21623XXSP,2013-03-19 09:32:00,
2013-03-19 04:37:00,13.6,-2.6,29.85,WNW,292,11.4,11.4,48,0.00,,,0.00,WUHU21623XXSP,2013-03-19 09:37:00,
2013-03-19 04:42:00,13.5,-2.7,29.85,SSW,202,5.6,11.4,48,0.00,,,0.00,WUHU21623XXSP,2013-03-19 09:42:00,
2013-03-19 04:47:00,13.5,-2.7,29.85,West,270,15.4,15.4,48,0.00,,,0.00,WUHU21623XXSP,2013-03-19 09:47:00,
2013-03-19 04:52:00,13.3,-2.9,29.85,West,270,11.4,15.4,48,0.00,,,0.00,WUHU21623XXSP,2013-03-19 09:52:00,
2013-03-19 04:57:00,13.3,-3.4,29.86,West,270,6.3,11.4,47,0.00,,,0.00,WUHU21623XXSP,2013-03-19 09:57:00,
2013-03-19 05:02:00,13.1,-3.5,29.86,West,270,12.1,12.1,47,0.00,,,0.00,WUHU21623XXSP,2013-03-19 10:02:00,
2013-03-19 05:07:00,13.1,-3.5,29.86,West,270,3.6,12.1,47,0.00,,,0.00,WUHU21623XXSP,2013-03-19 10:07:00,
2013-03-19 05:12:00,12.9,-3.7,29.86,WSW,247,1.1,4.9,47,0.00,,,0.00,WUHU21623XXSP,2013-03-19 10:12:00,
2013-03-19 05:17:00,12.6,-4.0,29.86,West,270,2.7,9.8,47,0.00,,,0.00,WUHU21623XXSP,2013-03-19 10:17:00,
2013-03-19 05:22:00,12.6,-4.5,29.86,WNW,292,3.6,9.8,46,0.00,,,0.00,WUHU21623XXSP,2013-03-19 10:22:00,
2013-03-19 05:27:00,12.6,-4.5,29.87,West,270,1.1,3.6,46,0.00,,,0.00,WUHU21623XXSP,2013-03-19 10:27:00,
2013-03-19 05:32:00,12.4,-4.6,29.87,West,270,0.0,13.0,46,0.00,,,0.00,WUHU21623XXSP,2013-03-19 10:32:00,
2013-03-19 05:37:00,12.7,-4.3,29.87,WSW,247,4.9,13.0,46,0.00,,,0.00,WUHU21623XXSP,2013-03-19 10:37:00,
2013-03-19 05:42:00,12.4,-4.6,29.88,WSW,247,2.2,9.2,46,0.00,,,0.00,WUHU21623XXSP,2013-03-19 10:42:00,
2013-03-19 05:47:00,12.6,-4.5,29.88,West,270,2.9,13.0,46,0.00,,,0.00,WUHU21623XXSP,2013-03-19 10:47:00,
2013-03-19 05:52:00,12.2,-4.8,29.87,West,270,11.6,13.0,46,0.00,,,0.00,WUHU21623XXSP,2013-03-19 10:52:00,
2013-03-19 05:57:00,12.0,-5.0,29.87,NW,315,9.2,11.6,46,0.00,,,0.00,WUHU21623XXSP,2013-03-19 10:57:00,
2013-03-19 06:02:00,12.4,-4.6,29.88,WSW,247,4.9,9.2,46,0.00,,,0.00,WUHU21623XXSP,2013-03-19 11:02:00,
2013-03-19 06:07:00,12.0,-5.0,29.87,WSW,247,2.5,5.6,46,0.00,,,0.00,WUHU21623XXSP,2013-03-19 11:07:00,
2013-03-19 06:12:00,12.2,-4.8,29.88,WSW,247,3.1,7.2,46,0.00,,,0.00,WUHU21623XXSP,2013-03-19 11:12:00,
2013-03-19 06:17:00,11.8,-5.6,29.88,West,270,6.3,7.2,45,0.00,,,0.00,WUHU21623XXSP,2013-03-19 11:17:00,
2013-03-19 06:22:00,11.7,-5.7,29.88,WNW,292,8.3,8.3,45,0.00,,,0.00,WUHU21623XXSP,2013-03-19 11:22:00,
2013-03-19 06:27:00,11.5,-5.9,29.88,WSW,247,3.6,8.3,45,0.00,,,0.00,WUHU21623XXSP,2013-03-19 11:27:00,
2013-03-19 06:32:00,11.7,-5.7,29.89,West,270,4.0,4.0,45,0.00,,,0.00,WUHU21623XXSP,2013-03-19 11:32:00,
2013-03-19 06:37:00,11.5,-5.9,29.89,West,270,5.4,6.0,45,0.00,,,0.00,WUHU21623XXSP,2013-03-19 11:37:00,
2013-03-19 06:42:00,11.3,-6.1,29.89,WSW,247,6.0,6.5,45,0.00,,,0.00,WUHU21623XXSP,2013-03-19 11:42:00,
2013-03-19 06:47:00,11.3,-6.1,29.89,WSW,247,3.8,6.5,45,0.00,,,0.00,WUHU21623XXSP,2013-03-19 11:47:00,
2013-03-19 06:52:00,11.3,-6.1,29.89,WSW,247,1.1,6.0,45,0.00,,,0.00,WUHU21623XXSP,2013-03-19 11:52:00,
2013-03-19 06:57:00,11.3,-6.1,29.89,WNW,292,3.6,6.5,45,0.00,,,0.00,WUHU21623XXSP,2013-03-19 11:57:00,
2013-03-19 07:02:00,11.1,-6.2,29.89,WSW,247,12.5,12.5,45,0.00,,,0.00,WUHU21623XXSP,2013-03-19 12:02:00,
2013-03-19 07:07:00,11.1,-6.2,29.89,WSW,247,9.2,12.5,45,0.00,,,0.00,WUHU21623XXSP,2013-03-19 12:07:00,
2013-03-19 07:12:00,11.1,-6.2,29.89,WSW,247,3.6,9.2,45,0.00,,,0.00,WUHU21623XXSP,2013-03-19 12:12:00,
2013-03-19 07:17:00,11.1,-6.2,29.89,WSW,247,8.5,8.5,45,0.00,,,0.00,WUHU21623XXSP,2013-03-19 12:17:00,
2013-03-19 07:22:00,11.1,-6.2,29.89,West,270,9.6,9.6,45,0.00,,,0.00,WUHU21623XXSP,2013-03-19 12:22:00,
2013-03-19 07:27:00,11.1,-6.2,29.90,WNW,292,6.5,9.6,45,0.00,,,0.00,WUHU21623XXSP,2013-03-19 12:27:00,
2013-03-19 07:32:00,11.1,-6.1,29.90,NW,315,1.3,8.5,45,0.00,,,0.00,WUHU21623XXSP,2013-03-19 12:32:00,
2013-03-19 07:37:00,11.3,-6.1,29.90,West,270,6.9,8.5,45,0.00,,,0.00,WUHU21623XXSP,2013-03-19 12:37:00,
2013-03-19 07:42:00,12.4,-4.6,29.90,WSW,247,6.3,6.9,46,0.00,,,0.00,WUHU21623XXSP,2013-03-19 12:42:00,
2013-03-19 07:47:00,12.9,-4.6,29.90,WSW,247,4.0,6.3,45,0.00,,,0.00,WUHU21623XXSP,2013-03-19 12:47:00,
2013-03-19 07:52:00,12.6,-5.4,29.91,WNW,292,5.8,5.8,44,0.00,,,0.00,WUHU21623XXSP,2013-03-19 12:52:00,
2013-03-19 07:57:00,12.2,-6.2,29.91,West,270,0.0,5.8,43,0.00,,,0.00,WUHU21623XXSP,2013-03-19 12:57:00,
2013-03-19 08:02:00,12.2,-6.2,29.91,WSW,247,4.7,7.2,43,0.00,,,0.00,WUHU21623XXSP,2013-03-19 13:02:00,
2013-03-19 08:07:00,12.4,-5.6,29.92,SW,225,0.0,7.2,44,0.00,,,0.00,WUHU21623XXSP,2013-03-19 13:07:00,
2013-03-19 08:12:00,12.6,-5.4,29.92,WSW,247,11.2,11.2,44,0.00,,,0.00,WUHU21623XXSP,2013-03-19 13:12:00,
2013-03-19 08:17:00,12.6,-5.4,29.92,WNW,292,10.3,11.2,44,0.00,,,0.00,WUHU21623XXSP,2013-03-19 13:17:00,
2013-03-19 08:22:00,12.9,-5.1,29.93,West,270,5.4,10.3,44,0.00,,,0.00,WUHU21623XXSP,2013-03-19 13:22:00,
2013-03-19 08:27:00,13.1,-5.4,29.93,West,270,6.0,8.9,43,0.00,,,0.00,WUHU21623XXSP,2013-03-19 13:27:00,
2013-03-19 08:32:00,13.6,-4.4,29.94,West,270,6.9,8.9,44,0.00,,,0.00,WUHU21623XXSP,2013-03-19 13:32:00,
2013-03-19 08:37:00,13.8,-4.7,29.93,WSW,247,3.8,7.6,43,0.00,,,0.00,WUHU21623XXSP,2013-03-19 13:37:00,
2013-03-19 08:42:00,14.0,-4.6,29.93,WSW,247,4.3,7.6,43,0.00,,,0.00,WUHU21623XXSP,2013-03-19 13:42:00,
2013-03-19 08:47:00,14.4,-4.3,29.94,West,270,6.0,6.0,43,0.00,,,0.00,WUHU21623XXSP,2013-03-19 13:47:00,
2013-03-19 08:52:00,14.5,-4.6,29.94,WSW,247,5.4,10.3,42,0.00,,,0.00,WUHU21623XXSP,2013-03-19 13:52:00,
2013-03-19 08:57:00,15.1,-3.6,29.94,SW,225,4.9,10.3,43,0.00,,,0.00,WUHU21623XXSP,2013-03-19 13:57:00,
2013-03-19 09:02:00,15.3,-3.9,29.94,SW,225,6.0,11.2,42,0.00,,,0.00,WUHU21623XXSP,2013-03-19 14:02:00,
2013-03-19 09:07:00,15.3,-4.4,29.94,SW,225,4.7,11.2,41,0.00,,,0.00,WUHU21623XXSP,2013-03-19 14:07:00,
2013-03-19 09:12:00,15.4,-4.2,29.94,West,270,4.9,8.7,41,0.00,,,0.00,WUHU21623XXSP,2013-03-19 14:12:00,
2013-03-19 09:17:00,16.0,-3.7,29.94,West,270,6.7,8.1,41,0.00,,,0.00,WUHU21623XXSP,2013-03-19 14:17:00,
2013-03-19 09:22:00,16.0,-4.2,29.94,WSW,247,4.9,6.7,40,0.00,,,0.00,WUHU21623XXSP,2013-03-19 14:22:00,
2013-03-19 09:27:00,16.3,-3.8,29.94,WNW,292,11.4,11.4,40,0.00,,,0.00,WUHU21623XXSP,2013-03-19 14:27:00,
2013-03-19 09:32:00,16.5,-4.2,29.94,WSW,247,9.4,11.4,39,0.00,,,0.00,WUHU21623XXSP,2013-03-19 14:32:00,
2013-03-19 09:37:00,16.7,-4.1,29.94,West,270,5.8,9.4,39,0.00,,,0.00,WUHU21623XXSP,2013-03-19 14:37:00,
2013-03-19 09:42:00,17.1,-3.7,29.94,WSW,247,11.4,11.4,39,0.00,,,0.00,WUHU21623XXSP,2013-03-19 14:42:00,
2013-03-19 09:47:00,17.6,-3.8,29.95,WSW,247,3.6,11.4,38,0.00,,,0.00,WUHU21623XXSP,2013-03-19 14:47:00,
2013-03-19 09:52:00,17.8,-4.2,29.95,NW,315,7.2,7.2,37,0.00,,,0.00,WUHU21623XXSP,2013-03-19 14:52:00,
2013-03-19 09:57:00,18.0,-4.7,29.95,NW,315,5.8,7.2,36,0.00,,,0.00,WUHU21623XXSP,2013-03-19 14:57:00,
2013-03-19 10:02:00,18.3,-4.4,29.96,West,270,2.9,5.8,36,0.00,,,0.00,WUHU21623XXSP,2013-03-19 15:02:00,
2013-03-19 10:08:00,18.9,-3.9,29.96,NNW,337,8.3,8.3,36,0.00,,,0.00,WUHU21623XXSP,2013-03-19 15:08:00,
2013-03-19 10:12:00,19.0,-4.3,29.96,WNW,292,7.4,8.3,35,0.00,,,0.00,WUHU21623XXSP,2013-03-19 15:12:00,
2013-03-19 10:17:00,19.6,-4.5,29.96,West,270,9.8,9.8,34,0.00,,,0.00,WUHU21623XXSP,2013-03-19 15:17:00,
2013-03-19 10:22:00,19.6,-5.7,29.96,SW,225,6.5,9.8,32,0.00,,,0.00,WUHU21623XXSP,2013-03-19 15:22:00,
2013-03-19 10:27:00,19.9,-5.4,29.97,NW,315,5.8,7.4,32,0.00,,,0.00,WUHU21623XXSP,2013-03-19 15:27:00,
2013-03-19 10:32:00,19.8,-6.7,29.97,WSW,247,10.3,10.3,30,0.00,,,0.00,WUHU21623XXSP,2013-03-19 15:32:00,
2013-03-19 10:38:00,19.9,-6.6,29.97,West,270,6.9,10.3,30,0.00,,,0.00,WUHU21623XXSP,2013-03-19 15:38:00,
2013-03-19 10:43:00,20.1,-7.2,29.97,WSW,247,6.7,6.9,29,0.00,,,0.00,WUHU21623XXSP,2013-03-19 15:43:00,
2013-03-19 10:48:00,20.1,-10.5,29.98,WNW,292,2.9,6.7,25,0.00,,,0.00,WUHU21623XXSP,2013-03-19 15:48:00,
2013-03-19 10:53:00,20.5,-10.2,29.98,West,270,4.0,6.3,25,0.00,,,0.00,WUHU21623XXSP,2013-03-19 15:53:00,
2013-03-19 10:58:00,20.8,-8.2,29.99,West,270,4.5,8.1,27,0.00,,,0.00,WUHU21623XXSP,2013-03-19 15:58:00,
2013-03-19 11:03:00,21.4,-8.6,29.99,West,270,8.7,15.0,26,0.00,,,0.00,WUHU21623XXSP,2013-03-19 16:03:00,
2013-03-19 11:08:00,21.9,-8.4,29.99,WSW,247,1.8,15.0,26,0.00,,,0.00,WUHU21623XXSP,2013-03-19 16:08:00,
2013-03-19 11:13:00,22.3,-9.4,29.99,SW,225,5.1,11.4,24,0.00,,,0.00,WUHU21623XXSP,2013-03-19 16:13:00,
2013-03-19 11:18:00,22.5,-8.4,29.99,West,270,12.5,12.5,25,0.00,,,0.00,WUHU21623XXSP,2013-03-19 16:18:00,
2013-03-19 11:23:00,22.6,-9.1,29.99,NW,315,5.8,12.5,24,0.00,,,0.00,WUHU21623XXSP,2013-03-19 16:23:00,
2013-03-19 11:28:00,22.8,-12.3,29.99,WNW,292,6.5,9.8,20,0.00,,,0.00,WUHU21623XXSP,2013-03-19 16:28:00,
2013-03-19 11:33:00,22.6,-13.5,29.99,SW,225,3.6,10.3,19,0.00,,,0.00,WUHU21623XXSP,2013-03-19 16:33:00,
2013-03-19 11:38:00,22.8,-13.3,29.99,WSW,247,3.1,10.3,19,0.00,,,0.00,WUHU21623XXSP,2013-03-19 16:38:00,
2013-03-19 11:43:00,22.8,-13.3,29.99,WNW,292,6.3,9.4,19,0.00,,,0.00,WUHU21623XXSP,2013-03-19 16:43:00,
2013-03-19 11:48:00,22.6,-13.5,30.00,West,270,11.0,11.0,19,0.00,,,0.00,WUHU21623XXSP,2013-03-19 16:48:00,
2013-03-19 11:53:00,22.8,-13.3,30.00,West,270,5.4,11.0,19,0.00,,,0.00,WUHU21623XXSP,2013-03-19 16:53:00,
2013-03-19 11:58:00,23.2,-13.0,30.00,West,270,5.8,9.4,19,0.00,,,0.00,WUHU21623XXSP,2013-03-19 16:58:00,
2013-03-19 12:03:00,23.9,-12.4,30.00,NW,315,11.0,11.0,19,0.00,,,0.00,WUHU21623XXSP,2013-03-19 17:03:00,
2013-03-19 12:08:00,24.3,-12.1,30.00,WSW,247,6.3,11.0,19,0.00,,,0.00,WUHU21623XXSP,2013-03-19 17:08:00,
2013-03-19 12:13:00,25.2,-11.3,30.00,WSW,247,3.4,10.7,19,0.00,,,0.00,WUHU21623XXSP,2013-03-19 17:13:00,
2013-03-19 12:18:00,25.2,-11.3,30.01,West,270,5.4,8.5,19,0.00,,,0.00,WUHU21623XXSP,2013-03-19 17:18:00,
2013-03-19 12:23:00,25.5,-11.1,30.01,West,270,11.4,11.4,19,0.00,,,0.00,WUHU21623XXSP,2013-03-19 17:23:00,
2013-03-19 12:28:00,25.5,-11.1,30.01,West,270,4.3,11.4,19,0.00,,,0.00,WUHU21623XXSP,2013-03-19 17:28:00,
2013-03-19 12:33:00,26.1,-10.6,30.01,WSW,247,14.8,14.8,19,0.00,,,0.00,WUHU21623XXSP,2013-03-19 17:33:00,
2013-03-19 12:38:00,26.1,-10.6,30.01,West,270,8.7,14.8,19,0.00,,,0.00,WUHU21623XXSP,2013-03-19 17:38:00,
2013-03-19 12:43:00,25.9,-10.7,30.01,WSW,247,7.2,9.4,19,0.00,,,0.00,WUHU21623XXSP,2013-03-19 17:43:00,
2013-03-19 12:48:00,26.1,-10.6,30.01,WNW,292,5.1,9.4,19,0.00,,,0.00,WUHU21623XXSP,2013-03-19 17:48:00,
2013-03-19 12:53:00,26.4,-10.3,30.02,WSW,247,11.4,11.4,19,0.00,,,0.00,WUHU21623XXSP,2013-03-19 17:53:00,
2013-03-19 12:58:00,26.2,-10.5,30.01,WSW,247,13.9,13.9,19,0.00,,,0.00,WUHU21623XXSP,2013-03-19 17:58:00,
2013-03-19 13:03:00,26.2,-10.5,30.01,NW,315,6.3,13.9,19,0.00,,,0.00,WUHU21623XXSP,2013-03-19 18:03:00,
2013-03-19 13:08:00,27.0,-9.8,30.01,West,270,8.7,8.7,19,0.00,,,0.00,WUHU21623XXSP,2013-03-19 18:08:00,
2013-03-19 13:13:00,27.0,-9.8,30.01,WSW,247,10.1,10.1,19,0.00,,,0.00,WUHU21623XXSP,2013-03-19 18:13:00,
2013-03-19 13:18:00,26.8,-10.0,30.02,West,270,8.3,10.7,19,0.00,,,0.00,WUHU21623XXSP,2013-03-19 18:18:00,
2013-03-19 13:23:00,27.3,-9.6,30.02,SW,225,13.0,13.0,19,0.00,,,0.00,WUHU21623XXSP,2013-03-19 18:23:00,
2013-03-19 13:28:00,27.3,-9.6,30.02,WSW,247,6.9,13.0,19,0.00,,,0.00,WUHU21623XXSP,2013-03-19 18:28:00,
2013-03-19 13:33:00,27.3,-9.6,30.02,SW,225,8.1,12.5,19,0.00,,,0.00,WUHU21623XXSP,2013-03-19 18:33:00,
2013-03-19 13:38:00,27.9,-9.1,30.02,WSW,247,11.6,12.5,19,0.00,,,0.00,WUHU21623XXSP,2013-03-19 18:38:00,
2013-03-19 13:43:00,28.2,-8.8,30.02,West,270,12.8,12.8,19,0.00,,,0.00,WUHU21623XXSP,2013-03-19 18:43:00,
2013-03-19 13:48:00,28.6,-8.5,30.02,West,270,6.5,12.8,19,0.00,,,0.00,WUHU21623XXSP,2013-03-19 18:48:00,
2013-03-19 13:53:00,28.2,-8.8,30.02,WSW,247,6.7,18.3,19,0.00,,,0.00,WUHU21623XXSP,2013-03-19 18:53:00,
2013-03-19 13:58:00,28.0,-9.0,30.02,West,270,9.2,18.3,19,0.00,,,0.00,WUHU21623XXSP,2013-03-19 18:58:00,
2013-03-19 14:03:00,28.0,-9.0,30.02,West,270,4.3,9.2,19,0.00,,,0.00,WUHU21623XXSP,2013-03-19 19:03:00,
2013-03-19 14:08:00,28.8,-8.3,30.02,WNW,292,10.5,10.5,19,0.00,,,0.00,WUHU21623XXSP,2013-03-19 19:08:00,
2013-03-19 14:13:00,28.8,-8.3,30.02,WSW,247,5.6,10.5,19,0.00,,,0.00,WUHU21623XXSP,2013-03-19 19:13:00,
2013-03-19 14:18:00,29.1,-8.1,30.02,West,270,5.1,8.7,19,0.00,,,0.00,WUHU21623XXSP,2013-03-19 19:18:00,
2013-03-19 14:23:00,29.5,-7.7,30.02,WSW,247,6.9,9.8,19,0.00,,,0.00,WUHU21623XXSP,2013-03-19 19:23:00,
2013-03-19 14:28:00,29.1,-8.1,30.02,WSW,247,13.6,13.6,19,0.00,,,0.00,WUHU21623XXSP,2013-03-19 19:28:00,
2013-03-19 14:33:00,29.1,-8.1,30.02,WSW,247,6.5,13.6,19,0.00,,,0.00,WUHU21623XXSP,2013-03-19 19:33:00,
2013-03-19 14:38:00,29.5,-7.7,30.02,SW,225,10.7,10.7,19,0.00,,,0.00,WUHU21623XXSP,2013-03-19 19:38:00,
2013-03-19 14:43:00,29.5,-7.7,30.02,SW,225,5.1,10.7,19,0.00,,,0.00,WUHU21623XXSP,2013-03-19 19:43:00,
2013-03-19 14:48:00,29.5,-7.7,30.01,West,270,4.0,15.4,19,0.00,,,0.00,WUHU21623XXSP,2013-03-19 19:48:00,
2013-03-19 14:53:00,29.8,-7.5,30.02,West,270,11.2,15.4,19,0.00,,,0.00,WUHU21623XXSP,2013-03-19 19:53:00,
2013-03-19 14:58:00,29.8,-7.5,30.02,WNW,292,8.1,11.2,19,0.00,,,0.00,WUHU21623XXSP,2013-03-19 19:58:00,
2013-03-19 15:03:00,29.8,-7.5,30.02,West,270,6.3,8.1,19,0.00,,,0.00,WUHU21623XXSP,2013-03-19 20:03:00,
2013-03-19 15:08:00,29.7,-7.6,30.02,WNW,292,8.5,8.5,19,0.00,,,0.00,WUHU21623XXSP,2013-03-19 20:08:00,
2013-03-19 15:13:00,29.7,-7.6,30.02,WNW,292,4.7,8.5,19,0.00,,,0.00,WUHU21623XXSP,2013-03-19 20:13:00,
2013-03-19 15:18:00,29.7,-7.6,30.02,SW,225,8.9,10.5,19,0.00,,,0.00,WUHU21623XXSP,2013-03-19 20:18:00,
2013-03-19 15:23:00,29.7,-7.6,30.02,SW,225,3.1,11.0,19,0.00,,,0.00,WUHU21623XXSP,2013-03-19 20:23:00,
2013-03-19 15:28:00,29.7,-7.6,30.02,West,270,1.8,11.0,19,0.00,,,0.00,WUHU21623XXSP,2013-03-19 20:28:00,
2013-03-19 15:33:00,29.1,-8.1,30.02,West,270,8.5,10.7,19,0.00,,,0.00,WUHU21623XXSP,2013-03-19 20:33:00,
2013-03-19 15:38:00,29.1,-8.1,30.03,WSW,247,9.4,11.2,19,0.00,,,0.00,WUHU21623XXSP,2013-03-19 20:38:00,
2013-03-19 15:43:00,29.5,-7.7,30.03,West,270,5.4,11.6,19,0.00,,,0.00,WUHU21623XXSP,2013-03-19 20:43:00,
2013-03-19 15:48:00,29.3,-7.9,30.03,WSW,247,2.2,11.6,19,0.00,,,0.00,WUHU21623XXSP,2013-03-19 20:48:00,
2013-03-19 15:53:00,29.7,-7.6,30.03,West,270,9.8,10.5,19,0.00,,,0.00,WUHU21623XXSP,2013-03-19 20:53:00,
2013-03-19 15:58:00,29.7,-7.6,30.03,West,270,3.4,10.5,19,0.00,,,0.00,WUHU21623XXSP,2013-03-19 20:58:00,
2013-03-19 16:03:00,30.0,-7.3,30.04,NW,315,6.9,7.8,19,0.00,,,0.00,WUHU21623XXSP,2013-03-19 21:03:00,
2013-03-19 16:08:00,30.2,-7.2,30.04,WNW,292,4.9,13.2,19,0.00,,,0.00,WUHU21623XXSP,2013-03-19 21:08:00,
2013-03-19 16:13:00,30.4,-7.0,30.04,WNW,292,5.8,13.2,19,0.00,,,0.00,WUHU21623XXSP,2013-03-19 21:13:00,
2013-03-19 16:18:00,30.0,-7.3,30.04,NW,315,17.7,17.7,19,0.00,,,0.00,WUHU21623XXSP,2013-03-19 21:18:00,
2013-03-19 16:23:00,30.2,-7.2,30.04,WSW,247,6.0,17.7,19,0.00,,,0.00,WUHU21623XXSP,2013-03-19 21:23:00,
2013-03-19 16:28:00,30.4,-7.0,30.05,West,270,17.0,17.0,19,0.00,,,0.00,WUHU21623XXSP,2013-03-19 21:28:00,
2013-03-19 16:33:00,29.8,-7.5,30.05,WSW,247,7.8,17.0,19,0.00,,,0.00,WUHU21623XXSP,2013-03-19 21:33:00,
2013-03-19 16:38:00,29.8,-7.5,30.05,WSW,247,6.3,17.0,19,0.00,,,0.00,WUHU21623XXSP,2013-03-19 21:38:00,
2013-03-19 16:43:00,29.8,-7.5,30.05,WSW,247,4.0,12.1,19,0.00,,,0.00,WUHU21623XXSP,2013-03-19 21:43:00,
2013-03-19 16:48:00,30.2,-7.2,30.05,SW,225,3.1,12.1,19,0.00,,,0.00,WUHU21623XXSP,2013-03-19 21:48:00,
2013-03-19 16:53:00,30.4,-7.0,30.05,WSW,247,6.9,7.8,19,0.00,,,0.00,WUHU21623XXSP,2013-03-19 21:53:00,
2013-03-19 16:58:00,30.7,-6.7,30.05,WSW,247,4.7,7.8,19,0.00,,,0.00,WUHU21623XXSP,2013-03-19 21:58:00,
2013-03-19 17:03:00,30.6,-6.8,30.06,WNW,292,8.7,8.7,19,0.00,,,0.00,WUHU21623XXSP,2013-03-19 22:03:00,
2013-03-19 17:08:00,30.6,-6.8,30.06,WNW,292,15.0,15.0,19,0.00,,,0.00,WUHU21623XXSP,2013-03-19 22:08:00,
2013-03-19 17:13:00,30.4,-7.0,30.06,SW,225,3.1,15.0,19,0.00,,,0.00,WUHU21623XXSP,2013-03-19 22:13:00,
2013-03-19 17:18:00,30.0,-7.3,30.06,West,270,5.8,7.2,19,0.00,,,0.00,WUHU21623XXSP,2013-03-19 22:18:00,
2013-03-19 17:23:00,29.7,-7.6,30.06,WSW,247,8.3,8.3,19,0.00,,,0.00,WUHU21623XXSP,2013-03-19 22:23:00,
2013-03-19 17:28:00,29.1,-8.1,30.06,WSW,247,9.4,11.0,19,0.00,,,0.00,WUHU21623XXSP,2013-03-19 22:28:00,
2013-03-19 17:33:00,28.8,-8.3,30.06,West,270,6.9,11.0,19,0.00,,,0.00,WUHU21623XXSP,2013-03-19 22:33:00,
2013-03-19 17:38:00,28.6,-8.5,30.06,WSW,247,4.7,9.4,19,0.00,,,0.00,WUHU21623XXSP,2013-03-19 22:38:00,
2013-03-19 17:43:00,28.4,-8.7,30.06,NW,315,3.4,4.7,19,0.00,,,0.00,WUHU21623XXSP,2013-03-19 22:43:00,
2013-03-19 17:48:00,28.4,-8.7,30.06,West,270,8.9,8.9,19,0.00,,,0.00,WUHU21623XXSP,2013-03-19 22:48:00,
2013-03-19 17:53:00,28.6,-8.5,30.06,WSW,247,4.0,8.9,19,0.00,,,0.00,WUHU21623XXSP,2013-03-19 22:53:00,
2013-03-19 17:58:00,28.4,-8.7,30.06,WSW,247,6.3,11.6,19,0.00,,,0.00,WUHU21623XXSP,2013-03-19 22:58:00,
2013-03-19 18:03:00,28.0,-9.0,30.06,WSW,247,3.6,11.6,19,0.00,,,0.00,WUHU21623XXSP,2013-03-19 23:03:00,
2013-03-19 18:08:00,27.7,-9.2,30.06,West,270,7.8,7.8,19,0.00,,,0.00,WUHU21623XXSP,2013-03-19 23:08:00,
2013-03-19 18:13:00,27.3,-9.6,30.07,SW,225,3.1,7.8,19,0.00,,,0.00,WUHU21623XXSP,2013-03-19 23:13:00,
2013-03-19 18:18:00,27.0,-9.8,30.07,WSW,247,3.4,6.3,19,0.00,,,0.00,WUHU21623XXSP,2013-03-19 23:18:00,
2013-03-19 18:23:00,26.8,-7.2,30.07,West,270,2.9,5.1,22,0.00,,,0.00,WUHU21623XXSP,2013-03-19 23:23:00,
2013-03-19 18:28:00,26.2,-2.7,30.07,South,180,0.7,9.2,28,0.00,,,0.00,WUHU21623XXSP,2013-03-19 23:28:00,
2013-03-19 18:33:00,26.1,-1.2,30.07,West,270,0.0,9.2,30,0.00,,,0.00,WUHU21623XXSP,2013-03-19 23:33:00,
2013-03-19 18:38:00,25.9,0.1,30.07,SW,225,5.1,5.1,33,0.00,,,0.00,WUHU21623XXSP,2013-03-19 23:38:00,
2013-03-19 18:43:00,25.3,0.1,30.07,SW,225,4.9,5.1,33,0.00,,,0.00,WUHU21623XXSP,2013-03-19 23:43:00,
2013-03-19 18:48:00,25.2,1.2,30.08,WSW,247,1.8,4.9,35,0.00,,,0.00,WUHU21623XXSP,2013-03-19 23:48:00,
2013-03-19 18:53:00,25.0,1.0,30.08,WSW,247,2.2,11.0,35,0.00,,,0.00,WUHU21623XXSP,2013-03-19 23:53:00,
2013-03-19 18:58:00,24.4,0.5,30.07,WSW,247,4.9,11.0,35,0.00,,,0.00,WUHU21623XXSP,2013-03-19 23:58:00,
2013-03-19 19:03:00,24.3,0.4,30.07,SW,225,3.1,5.6,35,0.00,,,0.00,WUHU21623XXSP,2013-03-20 00:03:00,
2013-03-19 19:08:00,24.1,0.8,30.07,SW,225,5.1,5.1,36,0.00,,,0.00,WUHU21623XXSP,2013-03-20 00:08:00,
2013-03-19 19:13:00,23.9,0.7,30.08,WSW,247,4.9,5.1,36,0.00,,,0.00,WUHU21623XXSP,2013-03-20 00:13:00,
2013-03-19 19:18:00,23.7,1.1,30.07,WSW,247,3.6,4.9,37,0.00,,,0.00,WUHU21623XXSP,2013-03-20 00:18:00,
2013-03-19 19:23:00,23.5,0.9,30.08,WSW,247,4.0,6.3,37,0.00,,,0.00,WUHU21623XXSP,2013-03-20 00:23:00,
2013-03-19 19:28:00,23.5,1.6,30.08,WSW,247,3.6,6.3,38,0.00,,,0.00,WUHU21623XXSP,2013-03-20 00:28:00,
2013-03-19 19:33:00,23.4,1.4,30.08,WSW,247,6.3,6.3,38,0.00,,,0.00,WUHU21623XXSP,2013-03-20 00:33:00,
2013-03-19 19:38:00,23.4,1.4,30.08,West,270,6.3,8.7,38,0.00,,,0.00,WUHU21623XXSP,2013-03-20 00:38:00,
2013-03-19 19:43:00,23.4,1.4,30.08,WSW,247,4.5,8.7,38,0.00,,,0.00,WUHU21623XXSP,2013-03-20 00:43:00,
2013-03-19 19:48:00,23.4,2.0,30.08,West,270,4.7,4.7,39,0.00,,,0.00,WUHU21623XXSP,2013-03-20 00:48:00,
2013-03-19 19:53:00,23.2,1.8,30.08,West,270,3.1,6.5,39,0.00,,,0.00,WUHU21623XXSP,2013-03-20 00:53:00,
2013-03-19 19:58:00,23.2,2.5,30.08,West,270,0.7,6.5,40,0.00,,,0.00,WUHU21623XXSP,2013-03-20 00:58:00,
2013-03-19 20:03:00,23.2,2.5,30.08,WNW,292,5.4,6.9,40,0.00,,,0.00,WUHU21623XXSP,2013-03-20 01:03:00,
2013-03-19 20:08:00,22.8,2.1,30.08,SW,225,3.4,6.9,40,0.00,,,0.00,WUHU21623XXSP,2013-03-20 01:08:00,
2013-03-19 20:13:00,22.8,2.1,30.08,WNW,292,3.1,5.8,40,0.00,,,0.00,WUHU21623XXSP,2013-03-20 01:13:00,
2013-03-19 20:18:00,22.8,2.1,30.09,West,270,7.6,7.6,40,0.00,,,0.00,WUHU21623XXSP,2013-03-20 01:18:00,
2013-03-19 20:23:00,22.8,2.1,30.09,SW,225,2.5,8.7,40,0.00,,,0.00,WUHU21623XXSP,2013-03-20 01:23:00,
2013-03-19 20:28:00,22.6,2.4,30.09,West,270,4.0,8.7,41,0.00,,,0.00,WUHU21623XXSP,2013-03-20 01:28:00,
2013-03-19 20:33:00,22.6,2.4,30.09,WSW,247,4.7,8.1,41,0.00,,,0.00,WUHU21623XXSP,2013-03-20 01:33:00,
2013-03-19 20:38:00,22.6,2.9,30.09,WSW,247,5.4,8.1,42,0.00,,,0.00,WUHU21623XXSP,2013-03-20 01:38:00,
2013-03-19 20:43:00,22.6,2.9,30.09,West,270,2.9,9.4,42,0.00,,,0.00,WUHU21623XXSP,2013-03-20 01:43:00,
2013-03-19 20:48:00,22.6,3.4,30.09,WNW,292,9.6,9.6,43,0.00,,,0.00,WUHU21623XXSP,2013-03-20 01:48:00,
2013-03-19 20:53:00,22.6,3.4,30.09,West,270,6.5,9.6,43,0.00,,,0.00,WUHU21623XXSP,2013-03-20 01:53:00,
2013-03-19 20:58:00,22.6,3.9,30.09,WSW,247,1.3,6.5,44,0.00,,,0.00,WUHU21623XXSP,2013-03-20 01:58:00,
2013-03-19 21:03:00,22.8,4.1,30.09,West,270,5.6,5.8,44,0.00,,,0.00,WUHU21623XXSP,2013-03-20 02:03:00,
2013-03-19 21:08:00,22.8,4.1,30.09,WNW,292,0.7,5.8,44,0.00,,,0.00,WUHU21623XXSP,2013-03-20 02:08:00,
2013-03-19 21:13:00,22.8,4.1,30.08,NW,315,3.8,4.3,44,0.00,,,0.00,WUHU21623XXSP,2013-03-20 02:13:00,
2013-03-19 21:18:00,22.8,3.6,30.09,WSW,247,5.1,5.8,43,0.00,,,0.00,WUHU21623XXSP,2013-03-20 02:18:00,
2013-03-19 21:23:00,23.0,3.8,30.09,WSW,247,2.7,5.8,43,0.00,,,0.00,WUHU21623XXSP,2013-03-20 02:23:00,
2013-03-19 21:28:00,22.8,3.6,30.08,WSW,247,10.5,10.5,43,0.00,,,0.00,WUHU21623XXSP,2013-03-20 02:28:00,
2013-03-19 21:33:00,22.8,3.6,30.08,West,270,7.4,10.5,43,0.00,,,0.00,WUHU21623XXSP,2013-03-20 02:33:00,
2013-03-19 21:38:00,22.8,3.6,30.08,WSW,247,5.1,7.6,43,0.00,,,0.00,WUHU21623XXSP,2013-03-20 02:38:00,
2013-03-19 21:43:00,22.8,3.6,30.08,West,270,2.9,5.8,43,0.00,,,0.00,WUHU21623XXSP,2013-03-20 02:43:00,
2013-03-19 21:48:00,22.6,3.4,30.09,West,270,10.7,10.7,43,0.00,,,0.00,WUHU21623XXSP,2013-03-20 02:48:00,
2013-03-19 21:53:00,22.8,4.1,30.09,WSW,247,5.4,10.7,44,0.00,,,0.00,WUHU21623XXSP,2013-03-20 02:53:00,
2013-03-19 21:58:00,22.8,3.6,30.08,West,270,3.8,7.2,43,0.00,,,0.00,WUHU21623XXSP,2013-03-20 02:58:00,
2013-03-19 22:03:00,22.6,2.9,30.08,WSW,247,8.9,10.3,42,0.00,,,0.00,WUHU21623XXSP,2013-03-20 03:03:00,
2013-03-19 22:08:00,22.6,2.9,30.08,WNW,292,7.6,10.3,42,0.00,,,0.00,WUHU21623XXSP,2013-03-20 03:08:00,
2013-03-19 22:13:00,22.5,2.3,30.08,West,270,8.1,8.1,41,0.00,,,0.00,WUHU21623XXSP,2013-03-20 03:13:00,
2013-03-19 22:18:00,22.5,1.8,30.07,West,270,0.9,8.1,40,0.00,,,0.00,WUHU21623XXSP,2013-03-20 03:18:00,
2013-03-19 22:24:00,22.3,1.7,30.07,West,270,9.8,9.8,40,0.00,,,0.00,WUHU21623XXSP,2013-03-20 03:24:00,
2013-03-19 22:29:00,22.1,1.5,30.07,WNW,292,5.4,9.8,40,0.00,,,0.00,WUHU21623XXSP,2013-03-20 03:29:00,
2013-03-19 22:34:00,22.1,1.5,30.07,West,270,5.1,7.2,40,0.00,,,0.00,WUHU21623XXSP,2013-03-20 03:34:00,
2013-03-19 22:39:00,22.1,0.9,30.07,WSW,247,1.1,5.1,39,0.00,,,0.00,WUHU21623XXSP,2013-03-20 03:39:00,
2013-03-19 22:44:00,21.9,0.7,30.07,NW,315,10.1,10.1,39,0.00,,,0.00,WUHU21623XXSP,2013-03-20 03:44:00,
2013-03-19 22:49:00,21.9,0.7,30.06,NW,315,9.8,10.1,39,0.00,,,0.00,WUHU21623XXSP,2013-03-20 03:49:00,
2013-03-19 22:54:00,22.1,1.5,30.07,NW,315,0.7,9.8,40,0.00,,,0.00,WUHU21623XXSP,2013-03-20 03:54:00,
2013-03-19 22:59:00,22.1,1.3,30.07,SW,225,3.1,3.6,40,0.00,,,0.00,WUHU21623XXSP,2013-03-20 03:59:00,
2013-03-19 23:00:00,22.1,1.3,30.07,SW,225,3.1,3.6,40,0.00,,,0.00,WUHU21623XXSP,2013-03-20 04:00:00,
2013-03-19 23:05:00,22.3,1.7,30.07,WNW,292,5.1,7.6,40,0.00,,,0.00,WUHU21623XXSP,2013-03-20 04:05:00,
2013-03-19 23:10:00,22.3,1.7,30.08,WNW,292,0.9,7.6,40,0.00,,,0.00,WUHU21623XXSP,2013-03-20 04:10:00,
2013-03-19 23:15:00,22.3,1.5,30.07,NNW,337,2.0,2.0,40,0.00,,,0.00,WUHU21623XXSP,2013-03-20 04:15:00,
2013-03-19 23:20:00,21.9,1.3,30.07,WSW,247,1.3,3.1,40,0.00,,,0.00,WUHU21623XXSP,2013-03-20 04:20:00,
2013-03-19 23:25:00,21.7,1.2,30.07,SW,225,4.5,8.9,40,0.00,,,0.00,WUHU21623XXSP,2013-03-20 04:25:00,
2013-03-19 23:30:00,21.6,1.0,30.07,NNW,337,10.5,10.5,40,0.00,,,0.00,WUHU21623XXSP,2013-03-20 04:30:00,
2013-03-19 23:35:00,21.6,1.0,30.07,NW,315,0.2,10.5,40,0.00,,,0.00,WUHU21623XXSP,2013-03-20 04:35:00,
2013-03-19 23:40:00,21.4,0.8,30.07,NW,315,2.5,2.5,40,0.00,,,0.00,WUHU21623XXSP,2013-03-20 04:40:00,
2013-03-19 23:45:00,21.0,0.5,30.07,SW,225,0.0,2.5,40,0.00,,,0.00,WUHU21623XXSP,2013-03-20 04:45:00,
2013-03-19 23:50:00,20.8,0.4,30.07,WSW,247,4.7,4.7,40,0.00,,,0.00,WUHU21623XXSP,2013-03-20 04:50:00,
2013-03-19 23:56:00,20.8,0.4,30.07,WSW,247,0.4,6.7,40,0.00,,,0.00,WUHU21623XXSP,2013-03-20 04:56:00,